Terminal Aerodrome Forecast
Issued by NWS

Home | Current Version | Previous Version | Text Only | Print | Product List | Glossary Off
Versions: 1 2 3 4 5 6 7 8 9 10 11 12 13 14 15 16 17 18 19 20 21 22 23 24 25 26 27 28 29 30 31 32 33 34 35

000
FTUS43 KLOT 291100
TAFMDW
TAF
KMDW 291129Z 2912/3012 00000KT P6SM MIFG FEW250
     FM291400 28003KT P6SM FEW250
     FM292100 30006KT P6SM SCT050
     FM300100 03012G17KT 6SM HZ OVC010
     FM300700 03009KT 6SM BR OVC015=

USA.gov is the U.S. government's official web portal to all federal, state and local government web resources and services.